K5KVN-2 Weather Reports


time (UTC)temp
F
wind
direction
speed
knots
gust
knots
rain 1hr
in
rain 24hr
in
rain mn
in
humidity
%
barometer
mb
20260508133052 58 196 4.3 6.1 0.00 0.00 0.00 82 1015.0
20260508132048 57 165 4.3 8.7 0.00 0.00 0.00 83 1015.0
20260508131047 56 188 3.5 6.1 0.00 0.00 0.00 85 1015.1
20260508130042 54 184 1.7 3.5 0.00 0.00 0.00 84 1015.1
20260508125042 54 181 1.7 5.2 0.00 0.00 0.00 84 1015.0
20260508124042 53 209 0.0 0.0 0.00 0.00 0.00 84 1014.9
20260508123040 52 196 0.0 0.0 0.00 0.00 0.00 83 1014.9
20260508122038 51 183 0.0 0.0 0.00 0.00 0.00 86 1014.9
20260508121038 50 183 0.0 0.0 0.00 0.00 0.00 86 1014.8
20260508120517 49 242 0.0 0.0 0.00 0.00 0.00 86 1015.0
20260508115038 48 242 0.0 0.0 0.00 0.00 0.00 86 1014.9
20260508114034 47 171 0.0 0.0 0.00 0.00 0.00 88 1014.6
20260508113030 47 171 0.0 0.0 0.00 0.00 0.00 87 1014.6
20260508112031 47 171 0.0 0.0 0.00 0.00 0.00 88 1014.5
20260508110032 46 169 0.0 0.0 0.00 0.00 0.00 91 1014.2
20260508105031 45 169 0.0 0.0 0.00 0.00 0.00 91 1014.2
20260508104030 45 169 0.0 0.0 0.00 0.00 0.00 89 1014.2
20260508103033 46 169 0.0 0.0 0.00 0.00 0.00 89 1014.1
20260508102030 46 169 0.0 0.0 0.00 0.00 0.00 90 1014.1
20260508101029 46 169 0.0 0.0 0.00 0.00 0.00 88 1014.1
20260508100030 46 169 0.0 0.0 0.00 0.00 0.00 88 1014.1
20260508095029 46 169 0.0 0.0 0.00 0.00 0.00 88 1013.9
20260508094028 47 169 0.0 0.0 0.00 0.00 0.00 88 1013.9
20260508093029 47 169 0.0 0.0 0.00 0.00 0.00 87 1013.7
20260508092503 47 169 0.0 0.0 0.00 0.00 0.00 88 1013.7
20260508091028 47 169 0.0 0.0 0.00 0.00 0.00 88 1013.8
20260508090028 47 169 0.0 0.0 0.00 0.00 0.00 87 1013.9
20260508085030 47 169 0.0 0.0 0.00 0.00 0.00 86 1013.9
20260508084503 47 169 0.0 0.0 0.00 0.00 0.00 86 1013.9
20260508083029 48 169 0.0 0.0 0.00 0.00 0.00 85 1014.1
20260508082030 48 169 0.0 0.0 0.00 0.00 0.00 85 1014.2
20260508081028 49 169 0.0 0.0 0.00 0.00 0.00 85 1014.1
20260508080030 49 169 0.0 0.0 0.00 0.00 0.00 83 1014.4
20260508075030 49 169 0.0 0.0 0.00 0.00 0.00 83 1014.5
20260508074030 49 169 0.0 0.0 0.00 0.00 0.00 83 1014.4
20260508073028 49 169 0.0 0.0 0.00 0.00 0.00 84 1014.5
20260508072031 49 169 0.0 0.0 0.00 0.00 0.00 84 1014.6
20260508071457 50 169 0.0 0.0 0.00 0.00 0.00 83 1014.7
20260508070022 51 169 0.0 0.0 0.00 0.00 0.00 81 1014.8
20260508064022 51 169 0.0 0.0 0.00 0.00 0.00 81 1015.1
20260508063022 51 169 0.0 0.0 0.00 0.00 0.00 82 1015.1
20260508062023 50 169 0.0 0.0 0.00 0.00 0.00 82 1015.3
20260508061455 50 169 0.0 0.0 0.00 0.00 0.00 84 1015.4
20260508060023 49 169 0.0 0.0 0.00 0.00 0.00 85 1015.4
20260508055016 50 169 0.0 0.0 0.00 0.00 0.00 84 1015.4
20260508054457 50 169 0.0 0.0 0.00 0.00 0.00 83 1015.5
20260508053017 51 169 0.0 0.0 0.00 0.00 0.00 82 1015.3
20260508052017 51 169 0.0 0.0 0.00 0.00 0.00 81 1015.5
20260508051013 51 169 0.0 0.0 0.00 0.00 0.00 82 1015.5
20260508050015 50 169 0.0 0.0 0.00 0.00 0.00 84 1015.4
20260508045500 50 169 0.0 0.0 0.00 0.00 0.00 84 1015.4
20260508044009 50 169 0.0 0.0 0.00 0.00 0.00 83 1015.5
20260508043010 50 169 0.0 0.9 0.00 0.00 0.00 83 1015.7
20260508042009 51 169 0.0 0.9 0.00 0.00 0.00 83 1015.7
20260508041009 51 184 0.0 0.0 0.00 0.00 0.00 81 1015.9
20260508040009 52 184 0.0 2.6 0.00 0.00 0.00 79 1015.9
20260508035007 52 227 0.0 1.7 0.00 0.00 0.00 79 1016.0
20260508034013 53 180 0.0 1.7 0.00 0.00 0.00 78 1016.0
20260508033008 54 200 0.0 1.7 0.00 0.00 0.00 74 1015.9
20260508032009 53 147 0.0 0.0 0.00 0.00 0.00 75 1015.9
20260508031007 53 147 0.0 0.9 0.00 0.00 0.00 75 1015.7
20260508030002 53 266 0.0 0.0 0.00 0.00 0.00 76 1015.7
20260508025002 53 266 0.0 1.7 0.00 0.00 0.00 76 1015.6
20260508024004 54 238 0.0 2.6 0.00 0.00 0.00 77 1015.5
20260508023003 55 5 0.0 0.0 0.00 0.00 0.00 74 1015.4
20260508022003 55 5 0.9 1.7 0.00 0.00 0.00 70 1015.3
20260508021003 56 41 0.0 1.7 0.00 0.00 0.00 70 1015.3
20260508020437 57 103 0.0 0.0 0.00 0.00 0.00 65 1015.3
20260508015001 57 103 0.0 0.9 0.00 0.00 0.00 63 1015.1
20260508014002 59 99 0.0 0.0 0.00 0.00 0.00 63 1014.9
20260508013002 60 99 0.0 0.9 0.00 0.00 0.00 59 1014.8
20260508012002 60 120 0.0 0.9 0.00 0.00 0.00 58 1014.8
20260508011003 61 119 0.0 0.9 0.00 0.00 0.00 56 1014.6
20260508010001 63 260 0.0 0.9 0.00 0.00 0.00 53 1014.6
20260508005003 65 225 0.0 0.9 0.00 0.00 0.00 50 1014.6
20260508004003 65 225 0.9 1.7 0.00 0.00 0.00 51 1014.6
20260508003003 65 197 1.7 3.5 0.00 0.00 0.00 47 1014.8
20260508002002 66 186 1.7 4.3 0.00 0.00 0.00 49 1014.8
20260508001004 66 187 0.9 2.6 0.00 0.00 0.00 48 1014.8
20260508000438 65 193 1.7 4.3 0.00 0.00 0.00 49 1014.8
20260507235001 65 194 3.5 5.2 0.00 0.00 0.00 50 1014.7
20260507234001 65 219 2.6 8.7 0.00 0.00 0.00 47 1014.8
20260507233002 66 230 1.7 4.3 0.00 0.00 0.00 48 1014.6
20260507232001 66 194 4.3 7.8 0.00 0.00 0.00 48 1014.7
20260507231439 66 198 3.5 7.0 0.00 0.00 0.00 48 1014.9
20260507230442 66 216 2.6 7.0 0.00 0.00 0.00 47 1014.9
20260507225001 66 294 2.6 6.1 0.00 0.00 0.00 48 1015.0
20260507224002 66 170 3.5 8.7 0.00 0.00 0.00 47 1015.0
20260507223001 67 193 3.5 6.1 0.00 0.00 0.00 46 1015.2
20260507222001 66 184 1.7 7.8 0.00 0.00 0.00 47 1015.2
20260507221001 67 207 4.3 8.7 0.00 0.00 0.00 45 1015.4
20260507220001 67 223 3.5 9.6 0.00 0.00 0.00 46 1015.3
20260507214959 66 275 1.7 6.1 0.00 0.00 0.00 45 1015.5
20260507214000 67 211 4.3 10.4 0.00 0.00 0.00 44 1015.4
20260507213443 68 197 5.2 11.3 0.00 0.00 0.00 46 1015.4
20260507212000 67 167 5.2 8.7 0.00 0.00 0.00 47 1015.4
20260507210953 67 179 3.5 7.8 0.00 0.00 0.00 46 1015.7
20260507205951 66 192 3.5 8.7 0.00 0.00 0.00 45 1015.7
20260507204953 67 193 3.5 7.8 0.00 0.00 0.00 45 1016.0
20260507203952 66 209 3.5 10.4 0.00 0.00 0.00 44 1016.1
20260507202952 67 151 4.3 8.7 0.00 0.00 0.00 42 1016.3
20260507201951 67 252 3.5 7.8 0.00 0.00 0.00 42 1016.4
20260507201436 67 328 3.5 8.7 0.00 0.00 0.00 48 1016.3
20260507195954 66 226 6.1 11.3 0.00 0.00 0.00 44 1016.4
20260507194953 67 179 4.3 13.9 0.00 0.00 0.00 49 1016.7
20260507193947 66 236 2.6 7.8 0.00 0.00 0.00 45 1017.0
20260507192947 66 168 3.5 8.7 0.00 0.00 0.00 44 1017.0
20260507191946 66 155 3.5 8.7 0.00 0.00 0.00 46 1017.2
20260507190945 66 209 3.5 7.8 0.00 0.00 0.00 49 1017.2
20260507190440 65 277 4.3 9.6 0.00 0.00 0.00 45 1017.2
20260507184945 65 225 5.2 9.6 0.00 0.00 0.00 50 1017.3
20260507183947 65 286 3.5 8.7 0.00 0.00 0.00 46 1017.4
20260507182945 65 314 3.5 9.6 0.00 0.00 0.00 44 1017.4
20260507181947 65 189 4.3 7.8 0.00 0.00 0.00 48 1017.5
20260507180945 65 315 3.5 9.6 0.00 0.00 0.00 43 1017.7
20260507175946 64 189 1.7 8.7 0.00 0.00 0.00 46 1018.0
20260507174945 64 317 2.6 7.0 0.00 0.00 0.00 42 1018.2
20260507173947 63 334 3.5 7.0 0.00 0.00 0.00 43 1018.4
20260507172946 63 273 2.6 6.1 0.00 0.00 0.00 47 1018.6
20260507171946 64 181 2.6 7.8 0.00 0.00 0.00 47 1018.4
20260507170946 63 307 3.5 8.7 0.00 0.00 0.00 46 1018.6
20260507165945 63 312 2.6 7.0 0.00 0.00 0.00 50 1018.7
20260507164942 62 331 2.6 7.8 0.00 0.00 0.00 45 1019.0
20260507163945 62 285 3.5 8.7 0.00 0.00 0.00 48 1019.1
20260507162941 62 339 4.3 8.7 0.00 0.00 0.00 51 1019.1
20260507161937 61 12 3.5 8.7 0.00 0.00 0.00 46 1019.2
20260507160939 60 244 2.6 6.1 0.00 0.00 0.00 52 1019.2
20260507160414 60 182 4.3 9.6 0.00 0.00 0.00 51 1019.4
20260507154931 59 150 1.7 5.2 0.00 0.00 0.00 51 1019.4
20260507153932 59 228 2.6 7.0 0.00 0.00 0.00 50 1019.4
20260507152931 59 355 2.6 7.8 0.00 0.00 0.00 51 1019.4
20260507151933 58 175 2.6 6.1 0.00 0.00 0.00 54 1019.4
20260507150935 57 164 1.7 4.3 0.00 0.00 0.00 59 1019.6
20260507145930 56 147 1.7 5.2 0.00 0.00 0.00 57 1019.5
20260507145413 56 175 1.7 5.2 0.00 0.00 0.00 62 1019.5
20260507143931 55 169 1.7 5.2 0.00 0.00 0.00 65 1019.4
20260507142931 54 203 1.7 4.3 0.00 0.00 0.00 69 1019.4
20260507141929 53 141 0.0 1.7 0.00 0.00 0.00 72 1019.3
20260507141408 52 146 0.9 2.6 0.00 0.00 0.00 76 1019.3
20260507135928 51 152 0.9 2.6 0.00 0.00 0.00 84 1019.3
20260507134924 49 170 0.9 1.7 0.00 0.00 0.00 87 1019.5
20260507133924 48 143 0.0 0.0 0.00 0.00 0.00 90 1019.5